This demonstration page uses our WeatherBlox Daily Observations layout. Learn more.

Left ArrowRight Arrow

Hourly Observations for November 12, 2020

Temp ( °F °C ) Dew Point ( °F °C ) Humidity (%) Winds ( mph kmh ) Pressure ( in mb ) Visibility ( mi km ) Precip ( " mm )
12:54 am 00:54 Clear 34 1.1 26 -3.3 73 73 Calm 30.06 1018 10 16.0934 0 0
1:54 am 01:54 Clear 32 0 25 -3.9 75 75 S 3 6 30.04 1017 10 16.0934 0 0
2:54 am 02:54 Clear 29 -1.7 23 -5 78 78 Calm 30.04 1017 10 16.0934 0 0
3:54 am 03:54 Clear 29 -1.7 23 -5 78 78 Calm 30.04 1017 10 16.0934 0 0
4:54 am 04:54 Clear 29 -1.7 23 -5 78 78 Calm 30.05 1018 10 16.0934 0 0
5:54 am 05:54 Clear 25 -3.9 22 -5.6 88 88 Calm 30.06 1018 10 16.0934 0 0
6:54 am 06:54 Clear 23 -5 19 -7.2 85 85 Calm 30.06 1018 10 16.0934 0 0
7:54 am 07:54 Sunny 24 -4.4 19 -7.2 81 81 Calm 30.07 1018 10 16.0934 0 0
8:54 am 08:54 Sunny 29 -1.7 25 -3.9 85 85 undefined N/A 30.08 1019 10 16.0934 0 0
9:54 am 09:54 Sunny 37 2.8 30 -1.1 76 76 NNW 22 35 30.11 1020 10 16.0934 0 0
10:32 am 10:32 Mostly Cloudy 35 1.7 26 -3.3 70 70 NNW 22 35 30.14 1021 10 16.0934 0 0
10:40 am 10:40 Partly Cloudy 36 2.2 26 -3.3 67 67 N 21 33 30.13 1020 10 16.0934 0 0
10:54 am 10:54 Mostly Sunny 36 2.2 26 -3.3 67 67 N 17 28 30.11 1020 10 16.0934 0 0
11:54 am 11:54 Sunny 39 3.9 26 -3.3 60 60 N 17 28 30.12 1020 10 16.0934 0 0
12:54 pm 12:54 Partly Cloudy 39 3.9 25 -3.9 57 57 NNW 21 33 30.11 1020 10 16.0934 0 0
1:54 pm 13:54 Mostly Cloudy 37 2.8 24 -4.4 59 59 NNW 21 33 30.14 1021 10 16.0934 0 0
2:34 pm 14:34 Mostly Cloudy 36 2.2 23 -5 59 59 N 18 30 30.17 1022 10 16.0934 0 0
2:54 pm 14:54 Cloudy 35 1.7 23 -5 61 61 N 15 24 30.18 1022 10 16.0934 0 0
3:54 pm 15:54 Cloudy 34 1.1 24 -4.4 67 67 NNW 18 30 30.2 1023 10 16.0934 0 0
4:54 pm 16:54 Partly Cloudy 33 0.6 19 -7.2 56 56 NNW 16 26 30.25 1024 10 16.0934 0 0
5:54 pm 17:54 Clear 30 -1.1 19 -7.2 64 64 N 8 13 30.28 1025 10 16.0934 0 0
6:54 pm 18:54 Clear 25 -3.9 18 -7.8 75 75 N 5 7 30.31 1027 10 16.0934 0 0
7:54 pm 19:54 Clear 25 -3.9 18 -7.8 75 75 Calm 30.32 1027 10 16.0934 0 0
8:54 pm 20:54 Clear 25 -3.9 20 -6.7 81 81 Calm 30.32 1027 10 16.0934 0 0
9:54 pm 21:54 Clear 21 -6.1 16 -8.9 81 81 Calm 30.34 1027 10 16.0934 0 0
10:54 pm 22:54 Clear 19 -7.2 14 -10 81 81 Calm 30.32 1027 10 16.0934 0 0
11:54 pm 23:54 Clear 23 -5 18 -7.8 81 81 WSW 6 9 30.32 1027 10 16.0934 0 0

Powered by AerisWeather